EW5043 Weather Reports


Display with metric or nautical units.
time (UTC)temp
F
wind
direction
speed
MPH
gust
MPH
rain 1hr
in
rain 24hr
in
rain mn
in
humidity
%
barometer
mb
20260506044538 47 78 3.0 0.0 0.00 0.00 0.04 100 1008.5
20260506043028 48 61 4.0 0.0 0.00 0.00 0.03 100 1008.7
20260506041520 48 53 4.0 0.0 0.00 0.00 0.01 100 1008.9
20260506040012 48 28 5.0 0.0 0.00 0.00 0.00 100 1008.6
20260506034615 48 169 0.0 0.0 0.00 0.00 0.24 100 1008.4
20260506033051 48 175 1.0 0.0 0.00 0.00 0.24 100 1008.3
20260506031544 48 175 1.0 0.0 0.00 0.00 0.23 100 1008.4
20260506030135 48 360 0.0 0.0 0.00 0.00 0.23 100 1008.4
20260506024626 48 360 0.0 0.0 0.00 0.00 0.21 100 1008.9
20260506023016 48 360 0.0 0.0 0.00 0.00 0.19 100 1008.8
20260506021507 48 360 0.0 0.0 0.00 0.00 0.17 100 1009.0
20260506020058 48 360 0.0 0.0 0.00 0.00 0.17 100 1008.8
20260506014648 48 360 0.0 0.0 0.00 0.00 0.16 100 1008.7
20260506013058 47 360 0.0 0.0 0.00 0.00 0.15 100 1008.2
20260506011529 47 360 0.0 0.0 0.00 0.00 0.14 100 1008.2
20260506010025 47 360 0.0 0.0 0.00 0.00 0.10 100 1008.1
20260506004611 46 360 0.0 0.0 0.00 0.00 0.08 100 1008.0
20260506003002 46 360 2.0 0.0 0.00 0.00 0.07 100 1007.8
20260506001553 46 351 5.0 0.0 0.00 0.00 0.07 100 1007.4
20260506000044 47 336 4.0 0.0 0.00 0.00 0.07 100 1007.5
20260505234537 46 338 6.0 0.0 0.00 0.00 0.06 100 1007.3
20260505233128 47 337 10.0 0.0 0.00 0.00 0.05 100 1006.9
20260505231621 49 343 9.0 0.0 0.00 0.00 0.02 100 1006.6
20260505224601 51 285 8.0 0.0 0.00 0.00 0.02 100 1006.3
20260505223106 53 307 8.0 0.0 0.00 0.00 0.02 100 1005.6
20260505221543 55 304 8.0 0.0 0.00 0.00 0.02 100 1005.2
20260505220041 57 286 7.0 0.0 0.00 0.00 0.02 100 1004.7
20260505214526 58 298 6.0 0.0 0.00 0.00 0.02 100 1004.2
20260505213017 57 293 5.0 0.0 0.00 0.00 0.02 100 1003.8
20260505211506 56 299 5.0 0.0 0.00 0.00 0.02 100 1003.7
20260505210057 55 302 5.0 0.0 0.00 0.00 0.02 100 1003.6
20260505204649 55 301 6.0 0.0 0.00 0.00 0.02 100 1003.5
20260505203046 54 301 5.0 0.0 0.00 0.00 0.02 100 1003.4
20260505201528 55 307 8.0 0.0 0.00 0.00 0.02 100 1003.0
20260505200119 55 320 5.0 0.0 0.00 0.00 0.02 100 1002.8
20260505194615 55 292 4.0 0.0 0.00 0.00 0.02 100 1002.8
20260505193101 55 315 2.0 0.0 0.00 0.00 0.02 3 1002.6
20260505191552 57 303 4.0 0.0 0.00 0.00 0.02 25 1002.7
20260505190045 61 301 5.0 0.0 0.00 0.00 0.02 29 1002.5
20260505184534 61 307 5.0 0.0 0.00 0.00 0.02 20 1002.4
20260505183025 60 304 5.0 0.0 0.00 0.00 0.02 10 1002.4
20260505181617 58 325 6.0 0.0 0.00 0.00 0.02 100 1002.4
20260505174600 62 292 7.0 0.0 0.00 0.00 0.02 29 1001.9
20260505173051 61 325 8.0 0.0 0.00 0.00 0.02 13 1001.8
20260505171540 58 293 7.0 0.0 0.00 0.00 0.02 7 1001.8
20260505170132 59 288 7.0 0.0 0.00 0.00 0.02 10 1001.9
20260505164543 59 316 6.0 0.0 0.00 0.00 0.02 16 1001.8
20260505163014 68 317 6.0 0.0 0.00 0.00 0.02 52 1001.5
20260505161506 73 292 4.0 0.0 0.00 0.00 0.02 51 1001.1
20260505153050 73 247 5.0 0.0 0.00 0.00 0.02 51 1000.8
20260505151534 73 248 7.0 0.0 0.00 0.00 0.02 51 1001.0
20260505124600 69 244 8.0 0.0 0.00 0.00 0.02 47 1000.5
20260505123100 68 224 7.0 0.0 0.00 0.00 0.02 42 1000.4
20260505121543 67 198 8.0 0.0 0.00 0.00 0.02 41 1000.5
20260505120135 67 229 8.0 0.0 0.00 0.00 0.02 39 1000.6
20260505114533 66 225 9.0 0.0 0.00 0.00 0.02 38 1000.5
20260505113115 66 219 10.0 0.0 0.00 0.00 0.02 35 1000.4
20260505111505 65 206 9.0 0.0 0.00 0.00 0.02 30 1000.2
20260505110105 64 209 10.0 0.0 0.00 0.00 0.02 25 1000.1
20260505101629 64 205 11.0 0.0 0.00 0.00 0.02 21 999.6
20260505100123 63 204 10.0 0.0 0.00 0.00 0.02 8 999.7
20260505094613 62 199 9.0 0.0 0.00 0.00 0.02 100 999.7
20260505093001 62 203 6.0 0.0 0.00 0.00 0.02 100 999.8
20260505091558 62 198 7.0 0.0 0.00 0.00 0.02 100 1000.1
20260505090054 63 203 7.0 0.0 0.00 0.00 0.02 1 1000.4
20260505084635 62 196 9.0 0.0 0.00 0.00 0.02 100 1000.3
20260505083035 62 202 7.0 0.0 0.00 0.00 0.02 100 1000.3
20260505081514 63 192 6.0 0.0 0.00 0.00 0.02 100 1000.4
20260505080004 65 225 8.0 0.0 0.00 0.00 0.01 28 1000.5
20260505074610 65 218 7.0 0.0 0.00 0.00 0.00 34 1000.6
20260505073053 66 215 7.0 0.0 0.00 0.00 0.00 44 1000.7
20260505071543 67 211 7.0 0.0 0.00 0.00 0.00 49 1000.6
20260505070045 66 234 8.0 0.0 0.00 0.00 0.00 50 1000.4
20260505064538 66 208 7.0 0.0 0.00 0.00 0.00 51 1000.3
20260505063035 66 202 7.0 0.0 0.00 0.00 0.00 52 1000.3
20260505061629 66 229 7.0 0.0 0.00 0.00 0.00 53 1000.2
20260505060018 66 207 7.0 0.0 0.00 0.00 0.00 52 1000.3